CDT,Max TemperatureF,Mean TemperatureF,Min TemperatureF,Max Dew PointF,MeanDew PointF,Min DewpointF,Max Humidity, Mean Humidity, Min Humidity, Max Sea Level PressureIn, Mean Sea Level PressureIn, Min Sea Level PressureIn, Max VisibilityMiles, Mean VisibilityMiles, Min VisibilityMiles, Max Wind SpeedMPH, Mean Wind SpeedMPH, Max Gust SpeedMPH,PrecipitationIn, CloudCover, Events, WindDirDegrees
2012-10-1,68,54,41,41,31,19,61,38,16,30.08,30.02,29.94,10,10,7,24,12,31,0.00,1,,341
2012-10-2,73,54,35,30,25,19,75,39,13,29.99,29.84,29.73,10,10,7,25,8,32,0.00,0,,172
2012-10-3,71,56,41,39,33,25,76,47,27,29.88,29.83,29.77,10,10,7,29,9,38,0.03,1,,30
2012-10-4,46,40,33,39,33,28,100,79,61,30.22,30.04,29.79,10,9,3,36,25,44,0.01,8,,319
2012-10-5,39,34,28,30,27,23,93,78,61,30.27,30.22,30.19,10,10,7,24,16,32,0.00,4,,308
2012-10-6,44,36,26,32,26,19,100,73,39,30.39,30.30,30.20,10,10,7,16,10,21,0.00,5,,331
2012-10-7,55,38,21,27,19,16,86,51,23,30.20,29.96,29.78,10,10,10,21,9,30,0.00,1,,214
2012-10-8,59,46,32,41,31,18,75,57,47,29.77,29.64,29.54,10,10,7,29,10,36,0.01,6,,235
2012-10-9,42,37,32,32,27,19,80,62,42,30.03,29.86,29.72,10,10,7,25,13,33,0.00,7,,301
2012-10-10,50,37,24,34,26,19,87,65,32,30.05,29.97,29.82,10,10,10,17,8,22,0.00,4,,259
2012-10-11,44,34,23,34,26,14,93,67,34,30.41,30.20,29.90,10,10,10,18,11,24,0.00,1,,344
2012-10-12,53,36,19,23,16,12,86,49,19,30.41,30.20,29.84,10,10,7,28,9,33,0.00,1,,161
2012-10-13,64,52,41,37,34,18,76,51,26,29.81,29.72,29.65,10,10,10,18,11,23,0.00,1,,195
2012-10-14,55,44,32,34,31,27,93,64,44,29.95,29.90,29.83,10,10,10,17,10,22,0.00,0,,339
2012-10-15,64,46,28,34,31,21,87,56,30,29.94,29.79,29.57,10,10,5,23,8,31,0.00,2,,161
2012-10-16,71,60,50,46,42,36,72,52,33,29.57,29.46,29.29,10,10,10,14,7,,0.00,2,,229
2012-10-17,55,48,42,50,43,37,94,81,54,29.27,29.22,29.17,10,8,2,29,12,37,0.78,7,,286
2012-10-18,46,44,41,45,41,37,100,92,81,29.53,29.30,29.16,10,5,1,32,20,47,0.44,8,,327
2012-10-19,41,40,39,37,37,36,93,87,81,29.76,29.71,29.58,10,9,4,31,20,39,0.00,8,,337
2012-10-20,50,44,37,43,39,36,100,87,76,29.76,29.71,29.65,10,9,1,18,6,22,0.00,5,,158
2012-10-21,53,47,41,46,42,37,93,84,71,30.01,29.82,29.69,10,10,7,18,9,25,0.00,2,,42
2012-10-22,57,48,39,45,41,34,87,76,59,30.05,29.97,29.86,10,10,5,18,12,25,0.00,3,,47
2012-10-23,55,52,48,54,49,43,100,90,76,29.85,29.73,29.64,10,4,0,14,8,17,0.00,8,,143
2012-10-24,50,42,35,45,35,32,87,82,76,30.00,29.93,29.81,10,10,7,18,12,28,0.02,6,,332
2012-10-25,37,34,32,32,27,23,93,75,60,30.18,30.03,29.94,10,10,10,26,17,33,0.00,7,,317
2012-10-26,39,36,32,27,21,14,75,58,38,30.33,30.29,30.18,10,10,10,25,16,32,0.00,7,,287
2012-10-27,41,31,21,30,23,18,86,71,45,30.33,30.29,30.24,10,10,10,9,4,,0.00,5,,206
2012-10-28,39,34,30,34,31,28,100,90,75,30.28,30.23,30.16,10,8,2,10,4,,0.02,8,,51
2012-10-29,50,42,35,32,31,28,87,69,50,30.17,30.15,30.13,10,10,10,18,13,24,0.00,5,,143
2012-10-30,44,40,35,30,28,27,81,66,49,30.18,30.14,30.07,10,10,5,15,10,20,0.00,6,,139
2012-10-31,53,42,32,37,32,28,93,71,44,30.08,30.01,29.93,10,10,7,23,6,30,0.00,4,,151